EWG16R EDDL-EGCC

Flight info

Callsign EWG16R
Flight time 1h 20m
Altitude 18000
Route NETEX4Z/05R NETEX Z282 DIBIR L179 ELSIK/N0430F340 DCT DENUT L610 LAM UN57 WELIN T420 ELVOS
Aircraft A320/M-SDE3FGHIRWY/LB1

Departure

Time 2026-05-05 18:43
Airport Düsseldorf Airport (EDDL)

Arrival

Time 2026-05-05 20:04
Airport Manchester Airport (EGCC)
Time Latitude Longitude Altitude Speed Heading
2026-05-05 18:00 51.28108 6.76546 129 ft 0 kts 96°
2026-05-05 18:34 51.28110 6.76521 135 ft 4 kts 96°
2026-05-05 18:34 51.28113 6.76479 121 ft 3 kts 96°
2026-05-05 18:34 51.28117 6.76445 124 ft 4 kts 126°
2026-05-05 18:35 51.28137 6.76425 123 ft 4 kts 177°
2026-05-05 18:35 51.28162 6.76427 124 ft 4 kts 187°
2026-05-05 18:35 51.28184 6.76431 124 ft 4 kts 186°
2026-05-05 18:35 51.28211 6.76435 123 ft 4 kts 185°
2026-05-05 18:36 51.28237 6.76442 124 ft 4 kts 211°
2026-05-05 18:36 51.28246 6.76454 122 ft 0 kts 233°
2026-05-05 18:38 51.28245 6.76453 123 ft 1 kts 233°
2026-05-05 18:39 51.28221 6.76402 125 ft 10 kts 232°
2026-05-05 18:39 51.28174 6.76299 125 ft 9 kts 247°
2026-05-05 18:39 51.28198 6.76232 124 ft 5 kts 314°
2026-05-05 18:39 51.28205 6.76179 126 ft 9 kts 251°
2026-05-05 18:40 51.28145 6.76054 127 ft 19 kts 232°
2026-05-05 18:40 51.28057 6.75868 128 ft 21 kts 231°
2026-05-05 18:40 51.27966 6.75677 126 ft 22 kts 233°
2026-05-05 18:40 51.27875 6.75486 126 ft 15 kts 232°
2026-05-05 18:41 51.27841 6.75364 124 ft 10 kts 289°
2026-05-05 18:41 51.27883 6.75316 123 ft 0 kts 334°
2026-05-05 18:41 51.27908 6.75297 124 ft 7 kts 334°
2026-05-05 18:42 51.27975 6.75265 124 ft 13 kts 10°
2026-05-05 18:42 51.28034 6.75352 124 ft 3 kts 53°
2026-05-05 18:42 51.28034 6.75353 124 ft 0 kts 53°
2026-05-05 18:42 51.28052 6.75392 122 ft 17 kts 53°
2026-05-05 18:43 51.28280 6.75868 128 ft 88 kts 52°
2026-05-05 18:43 51.28776 6.76903 124 ft 144 kts 52°
2026-05-05 18:43 51.29426 6.78296 522 ft 156 kts 50°
2026-05-05 18:43 51.30071 6.79677 1294 ft 155 kts 52°
2026-05-05 18:44 51.30742 6.81090 1778 ft 169 kts 51°
2026-05-05 18:44 51.31502 6.82685 2083 ft 191 kts 52°
2026-05-05 18:44 51.32347 6.84460 2427 ft 208 kts 52°
2026-05-05 18:44 51.33269 6.86400 2819 ft 232 kts 53°
2026-05-05 18:45 51.34328 6.88498 3333 ft 250 kts 45°
2026-05-05 18:45 51.35724 6.90152 4080 ft 258 kts 28°
2026-05-05 18:45 51.37445 6.91100 4882 ft 266 kts 11°
2026-05-05 18:45 51.39283 6.91584 5702 ft 271 kts 10°
2026-05-05 18:46 51.41164 6.92078 6516 ft 276 kts
2026-05-05 18:46 51.43073 6.92587 7315 ft 280 kts
2026-05-05 18:46 51.45005 6.93108 8126 ft 283 kts
2026-05-05 18:46 51.46963 6.93635 8929 ft 288 kts
2026-05-05 18:47 51.48954 6.94133 9744 ft 291 kts
2026-05-05 18:47 51.50994 6.94022 10378 ft 299 kts 349°
2026-05-05 18:47 51.53114 6.93350 10604 ft 322 kts 347°
2026-05-05 18:47 51.55377 6.92589 10956 ft 339 kts 347°
2026-05-05 18:48 51.57705 6.91788 11579 ft 345 kts 347°
2026-05-05 18:48 51.60075 6.90970 12271 ft 350 kts 347°
2026-05-05 18:48 51.62475 6.90143 12893 ft 357 kts 347°
2026-05-05 18:48 51.64918 6.89302 13546 ft 361 kts 347°
2026-05-05 18:49 51.67396 6.88457 14163 ft 365 kts 347°
2026-05-05 18:49 51.69889 6.87609 14773 ft 369 kts 347°
2026-05-05 18:49 51.72415 6.86746 15366 ft 373 kts 347°
2026-05-05 18:49 51.74932 6.85887 15973 ft 376 kts 347°
2026-05-05 18:50 51.77500 6.85011 16590 ft 379 kts 347°
2026-05-05 18:50 51.80091 6.84120 17174 ft 382 kts 347°
2026-05-05 18:50 51.82686 6.83106 17753 ft 385 kts 339°
2026-05-05 18:50 51.85054 6.81106 18287 ft 386 kts 322°
2026-05-05 18:51 51.86926 6.78004 18820 ft 386 kts 303°
2026-05-05 18:51 51.88221 6.74199 19297 ft 387 kts 295°
2026-05-05 18:51 51.89427 6.70289 19832 ft 390 kts 295°
2026-05-05 18:51 51.90638 6.66342 20327 ft 392 kts 295°
2026-05-05 18:52 51.91853 6.62378 20832 ft 395 kts 294°
2026-05-05 18:52 51.93079 6.58379 21315 ft 398 kts 294°
2026-05-05 18:52 51.94318 6.54347 21780 ft 401 kts 294°
2026-05-05 18:52 51.95563 6.50297 22250 ft 404 kts 294°
2026-05-05 18:53 51.96820 6.46202 22712 ft 407 kts 294°
2026-05-05 18:53 51.98084 6.42078 23156 ft 409 kts 293°
2026-05-05 18:53 51.99354 6.37928 23575 ft 412 kts 293°
2026-05-05 18:53 52.00634 6.33743 23960 ft 415 kts 294°
2026-05-05 18:54 52.01918 6.29535 24338 ft 417 kts 294°
2026-05-05 18:54 52.03207 6.25297 24709 ft 419 kts 293°
2026-05-05 18:54 52.04531 6.20936 25080 ft 422 kts 293°
2026-05-05 18:54 52.05801 6.16755 25428 ft 424 kts 293°
2026-05-05 18:55 52.07111 6.12449 25785 ft 426 kts 293°
2026-05-05 18:55 52.08423 6.08113 26126 ft 429 kts 293°
2026-05-05 18:55 52.09720 6.03802 26470 ft 431 kts 293°
2026-05-05 18:55 52.11043 5.99405 26803 ft 433 kts 293°
2026-05-05 18:56 52.12369 5.94998 27137 ft 436 kts 293°
2026-05-05 18:56 52.13722 5.90491 27492 ft 438 kts 292°
2026-05-05 18:56 52.15040 5.86095 27905 ft 438 kts 293°
2026-05-05 18:56 52.16391 5.81585 28292 ft 439 kts 293°
2026-05-05 18:57 52.17716 5.77153 28632 ft 441 kts 292°
2026-05-05 18:57 52.19059 5.72643 28956 ft 443 kts 292°
2026-05-05 18:57 52.20401 5.68116 29264 ft 445 kts 292°
2026-05-05 18:57 52.21748 5.63566 29569 ft 446 kts 292°
2026-05-05 18:58 52.23100 5.59000 29874 ft 448 kts 292°
2026-05-05 18:58 52.24459 5.54402 30127 ft 450 kts 292°
2026-05-05 18:58 52.25818 5.49795 30373 ft 452 kts 292°
2026-05-05 18:58 52.27181 5.45159 30612 ft 454 kts 292°
2026-05-05 18:59 52.28552 5.40490 30846 ft 456 kts 292°
2026-05-05 18:59 52.29921 5.35826 31150 ft 456 kts 292°
2026-05-05 18:59 52.31287 5.31170 31476 ft 455 kts 292°
2026-05-05 18:59 52.32657 5.26492 31810 ft 454 kts 292°
2026-05-05 19:00 52.34014 5.21841 32124 ft 454 kts 292°
2026-05-05 19:00 52.35368 5.17186 32445 ft 453 kts 291°
2026-05-05 19:00 52.36722 5.12520 32763 ft 453 kts 291°
2026-05-05 19:00 52.38069 5.07872 33066 ft 453 kts 291°
2026-05-05 19:01 52.39418 5.03213 33398 ft 452 kts 291°
2026-05-05 19:01 52.40762 4.98561 33717 ft 452 kts 291°
2026-05-05 19:01 52.42101 4.93913 34043 ft 451 kts 291°
2026-05-05 19:01 52.43430 4.89290 34426 ft 447 kts 291°
2026-05-05 19:02 52.44747 4.84691 34754 ft 445 kts 291°
2026-05-05 19:02 52.46058 4.80101 35025 ft 444 kts 291°
2026-05-05 19:02 52.47346 4.75579 35271 ft 443 kts 291°
2026-05-05 19:02 52.48670 4.70937 35520 ft 443 kts 291°
2026-05-05 19:03 52.49975 4.66363 35744 ft 443 kts 291°
2026-05-05 19:03 52.51261 4.61850 35894 ft 443 kts 291°
2026-05-05 19:03 52.53852 4.52717 35928 ft 440 kts 291°
2026-05-05 19:04 52.56423 4.43608 35926 ft 439 kts 291°
2026-05-05 19:04 52.58915 4.34736 35935 ft 439 kts 291°
2026-05-05 19:05 52.61467 4.25609 35934 ft 439 kts 291°
2026-05-05 19:05 52.64015 4.16469 35938 ft 439 kts 291°
2026-05-05 19:06 52.66557 4.07339 35939 ft 439 kts 291°
2026-05-05 19:06 52.69089 3.98198 35952 ft 439 kts 290°
2026-05-05 19:07 52.71192 3.90580 35955 ft 439 kts 290°
2026-05-05 19:07 52.74113 3.79926 35956 ft 438 kts 290°
2026-05-05 19:08 52.76209 3.72252 35951 ft 438 kts 290°
2026-05-05 19:08 52.78710 3.63084 35949 ft 437 kts 290°
2026-05-05 19:09 52.81198 3.53914 35953 ft 437 kts 290°
2026-05-05 19:09 52.83679 3.44740 35963 ft 437 kts 290°
2026-05-05 19:10 52.86157 3.35569 35958 ft 437 kts 290°
2026-05-05 19:10 52.88626 3.26389 35947 ft 436 kts 290°
2026-05-05 19:11 52.91058 3.17242 35950 ft 436 kts 288°
2026-05-05 19:11 52.92649 3.07668 35952 ft 430 kts 278°
2026-05-05 19:12 52.93925 2.97991 35959 ft 430 kts 278°
2026-05-05 19:12 52.95207 2.88299 35952 ft 430 kts 278°
2026-05-05 19:13 52.96480 2.78598 35952 ft 430 kts 278°
2026-05-05 19:13 52.97730 2.68894 35951 ft 430 kts 278°
2026-05-05 19:14 52.98979 2.59175 35981 ft 429 kts 279°
2026-05-05 19:14 53.00215 2.49494 35993 ft 428 kts 279°
2026-05-05 19:15 53.01437 2.39832 35989 ft 427 kts 279°
2026-05-05 19:15 53.02649 2.30184 35982 ft 427 kts 279°
2026-05-05 19:16 53.03850 2.20589 35986 ft 426 kts 279°
2026-05-05 19:16 53.05050 2.10942 35973 ft 426 kts 279°
2026-05-05 19:17 53.06244 2.01295 35986 ft 426 kts 279°
2026-05-05 19:17 53.07425 1.91636 35978 ft 426 kts 279°
2026-05-05 19:18 53.08590 1.81978 35980 ft 426 kts 278°
2026-05-05 19:18 53.09750 1.72314 35977 ft 426 kts 278°
2026-05-05 19:19 53.10910 1.62646 35978 ft 426 kts 278°
2026-05-05 19:19 53.12060 1.52989 35979 ft 426 kts 278°
2026-05-05 19:20 53.13209 1.43298 35984 ft 426 kts 278°
2026-05-05 19:20 53.14348 1.33607 35981 ft 426 kts 278°
2026-05-05 19:21 53.15471 1.23920 35985 ft 426 kts 278°
2026-05-05 19:21 53.16590 1.14221 35988 ft 426 kts 278°
2026-05-05 19:22 53.17704 1.04512 35988 ft 426 kts 278°
2026-05-05 19:22 53.18808 0.94801 35996 ft 426 kts 278°
2026-05-05 19:23 53.19906 0.85091 35994 ft 426 kts 278°
2026-05-05 19:23 53.20989 0.75356 35997 ft 427 kts 278°
2026-05-05 19:24 53.22058 0.65672 35996 ft 427 kts 278°
2026-05-05 19:24 53.23132 0.55923 35935 ft 427 kts 278°
2026-05-05 19:25 53.23667 0.51056 35374 ft 426 kts 278°
2026-05-05 19:25 53.24200 0.46191 34705 ft 426 kts 278°
2026-05-05 19:25 53.24730 0.41329 34214 ft 423 kts 278°
2026-05-05 19:25 53.25251 0.36531 33715 ft 418 kts 278°
2026-05-05 19:26 53.25766 0.31768 33153 ft 415 kts 278°
2026-05-05 19:26 53.26272 0.27051 32636 ft 411 kts 278°
2026-05-05 19:26 53.26769 0.22375 32140 ft 407 kts 277°
2026-05-05 19:26 53.27260 0.17736 31506 ft 406 kts 277°
2026-05-05 19:27 53.27752 0.13073 30720 ft 410 kts 277°
2026-05-05 19:27 53.28248 0.08370 29935 ft 412 kts 277°
2026-05-05 19:27 53.28874 0.03689 29196 ft 414 kts 284°
2026-05-05 19:27 53.29953 -0.00758 28572 ft 414 kts 293°
2026-05-05 19:28 53.31222 -0.05041 28096 ft 408 kts 294°
2026-05-05 19:28 53.32463 -0.09258 27649 ft 401 kts 294°
2026-05-05 19:28 53.33677 -0.13420 27211 ft 395 kts 293°
2026-05-05 19:28 53.34867 -0.17516 26772 ft 389 kts 293°
2026-05-05 19:29 53.36038 -0.21554 26332 ft 383 kts 293°
2026-05-05 19:29 53.37192 -0.25537 25900 ft 378 kts 293°
2026-05-05 19:29 53.38334 -0.29477 25484 ft 373 kts 293°
2026-05-05 19:29 53.39457 -0.33352 25074 ft 368 kts 293°
2026-05-05 19:30 53.40568 -0.37189 24670 ft 363 kts 293°
2026-05-05 19:30 53.41665 -0.40987 24259 ft 360 kts 292°
2026-05-05 19:30 53.42750 -0.44747 23854 ft 357 kts 292°
2026-05-05 19:30 53.43824 -0.48473 23450 ft 354 kts 292°
2026-05-05 19:31 53.44889 -0.52178 23039 ft 351 kts 292°
2026-05-05 19:31 53.45947 -0.55868 22644 ft 349 kts 293°
2026-05-05 19:31 53.46994 -0.59528 22250 ft 347 kts 293°
2026-05-05 19:31 53.48036 -0.63178 21861 ft 345 kts 293°
2026-05-05 19:32 53.49071 -0.66804 21477 ft 344 kts 293°
2026-05-05 19:32 53.50100 -0.70414 21094 ft 342 kts 293°
2026-05-05 19:32 53.51122 -0.74001 20708 ft 340 kts 293°
2026-05-05 19:32 53.52139 -0.77580 20325 ft 338 kts 293°
2026-05-05 19:33 53.53151 -0.81146 19947 ft 336 kts 293°
2026-05-05 19:33 53.54141 -0.84644 19576 ft 334 kts 293°
2026-05-05 19:33 53.55137 -0.88168 19194 ft 333 kts 294°
2026-05-05 19:33 53.56128 -0.91680 18829 ft 331 kts 294°
2026-05-05 19:34 53.57115 -0.95175 18460 ft 330 kts 294°
2026-05-05 19:34 53.58097 -0.98655 18056 ft 328 kts 294°
2026-05-05 19:34 53.59070 -1.02113 17679 ft 326 kts 294°
2026-05-05 19:35 53.60885 -1.09062 16962 ft 321 kts 286°
2026-05-05 19:35 53.61405 -1.12662 16780 ft 320 kts 282°
2026-05-05 19:35 53.61902 -1.16319 16573 ft 320 kts 282°
2026-05-05 19:35 53.62402 -1.19967 16359 ft 318 kts 282°
2026-05-05 19:36 53.62900 -1.23592 16149 ft 317 kts 282°
2026-05-05 19:36 53.63397 -1.27218 15938 ft 316 kts 282°
2026-05-05 19:36 53.63889 -1.30828 15729 ft 315 kts 283°
2026-05-05 19:36 53.64373 -1.34412 15520 ft 313 kts 282°
2026-05-05 19:37 53.64856 -1.37994 15313 ft 312 kts 283°
2026-05-05 19:37 53.65337 -1.41561 15106 ft 312 kts 283°
2026-05-05 19:37 53.65816 -1.45125 14897 ft 311 kts 283°
2026-05-05 19:37 53.66291 -1.48681 14698 ft 310 kts 283°
2026-05-05 19:38 53.66765 -1.52226 14483 ft 310 kts 283°
2026-05-05 19:38 53.67237 -1.55770 14280 ft 310 kts 283°
2026-05-05 19:38 53.67708 -1.59294 14074 ft 306 kts 283°
2026-05-05 19:38 53.68167 -1.62748 13871 ft 306 kts 283°
2026-05-05 19:39 53.68633 -1.66269 13652 ft 302 kts 283°
2026-05-05 19:39 53.69091 -1.69738 13441 ft 303 kts 283°
2026-05-05 19:39 53.69544 -1.73166 13248 ft 301 kts 283°
2026-05-05 19:39 53.69997 -1.76602 13047 ft 300 kts 283°
2026-05-05 19:40 53.70450 -1.80042 12850 ft 300 kts 283°
2026-05-05 19:40 53.70897 -1.83463 12652 ft 297 kts 283°
2026-05-05 19:40 53.71343 -1.86872 12452 ft 299 kts 283°
2026-05-05 19:40 53.71791 -1.90304 12253 ft 298 kts 284°
2026-05-05 19:41 53.72234 -1.93701 12052 ft 296 kts 283°
2026-05-05 19:41 53.72676 -1.97106 11860 ft 296 kts 283°
2026-05-05 19:41 53.73113 -2.00509 11662 ft 297 kts 283°
2026-05-05 19:41 53.73551 -2.03909 11480 ft 296 kts 283°
2026-05-05 19:42 53.73984 -2.07282 11277 ft 289 kts 283°
2026-05-05 19:42 53.74307 -2.10588 11087 ft 282 kts 274°
2026-05-05 19:42 53.74228 -2.13893 10968 ft 281 kts 268°
2026-05-05 19:42 53.74093 -2.17162 10801 ft 278 kts 269°
2026-05-05 19:43 53.73970 -2.20418 10612 ft 278 kts 269°
2026-05-05 19:43 53.73849 -2.23684 10424 ft 279 kts 268°
2026-05-05 19:43 53.73725 -2.26942 10232 ft 277 kts 268°
2026-05-05 19:43 53.73597 -2.30202 10037 ft 277 kts 268°
2026-05-05 19:44 53.73466 -2.33454 9840 ft 278 kts 268°
2026-05-05 19:44 53.73334 -2.36701 9640 ft 275 kts 269°
2026-05-05 19:44 53.73202 -2.39930 9456 ft 276 kts 269°
2026-05-05 19:44 53.73068 -2.43149 9262 ft 273 kts 269°
2026-05-05 19:45 53.72937 -2.46334 9078 ft 271 kts 269°
2026-05-05 19:45 53.72807 -2.49515 8889 ft 272 kts 268°
2026-05-05 19:45 53.72715 -2.52696 8734 ft 268 kts 277°
2026-05-05 19:45 53.73166 -2.55714 8671 ft 268 kts 297°
2026-05-05 19:46 53.74282 -2.58223 8612 ft 270 kts 319°
2026-05-05 19:46 53.75887 -2.59796 8539 ft 268 kts 341°
2026-05-05 19:46 53.77733 -2.60194 8460 ft 270 kts
2026-05-05 19:46 53.79553 -2.59329 8340 ft 276 kts 28°
2026-05-05 19:47 53.81017 -2.57224 8214 ft 281 kts 51°
2026-05-05 19:47 53.81813 -2.54198 8081 ft 287 kts 78°
2026-05-05 19:47 53.81741 -2.50836 7956 ft 290 kts 105°
2026-05-05 19:47 53.80796 -2.47870 7824 ft 286 kts 133°
2026-05-05 19:48 53.79198 -2.45938 7699 ft 284 kts 160°
2026-05-05 19:48 53.77282 -2.45377 7571 ft 280 kts 184°
2026-05-05 19:48 53.75338 -2.45602 7445 ft 280 kts 186°
2026-05-05 19:48 53.73422 -2.45834 7320 ft 280 kts 186°
2026-05-05 19:49 53.72112 -2.45993 7236 ft 279 kts 185°
2026-05-05 19:49 53.70174 -2.46225 7104 ft 279 kts 186°
2026-05-05 19:49 53.68237 -2.46452 6975 ft 278 kts 185°
2026-05-05 19:49 53.65687 -2.46749 6809 ft 277 kts 185°
2026-05-05 19:50 53.64390 -2.46900 6716 ft 276 kts 185°
2026-05-05 19:50 53.61860 -2.47195 6566 ft 274 kts 185°
2026-05-05 19:50 53.60574 -2.47348 6488 ft 273 kts 185°
2026-05-05 19:50 53.58678 -2.47571 6350 ft 273 kts 185°
2026-05-05 19:51 53.56788 -2.47791 6218 ft 272 kts 185°
2026-05-05 19:51 53.54898 -2.48011 6085 ft 272 kts 185°
2026-05-05 19:51 53.53036 -2.48229 5952 ft 271 kts 185°
2026-05-05 19:51 53.51136 -2.48453 5819 ft 271 kts 185°
2026-05-05 19:52 53.49279 -2.48674 5692 ft 270 kts 184°
2026-05-05 19:52 53.47407 -2.48896 5541 ft 267 kts 184°
2026-05-05 19:52 53.45576 -2.49107 5237 ft 262 kts 184°
2026-05-05 19:52 53.43773 -2.49347 4992 ft 260 kts 189°
2026-05-05 19:53 53.42087 -2.50474 4847 ft 265 kts 213°
2026-05-05 19:53 53.40572 -2.52275 4690 ft 266 kts 217°
2026-05-05 19:53 53.39128 -2.54109 4522 ft 255 kts 217°
2026-05-05 19:53 53.37750 -2.55885 4364 ft 244 kts 217°
2026-05-05 19:54 53.36431 -2.57591 4200 ft 235 kts 217°
2026-05-05 19:54 53.35189 -2.59356 4075 ft 234 kts 224°
2026-05-05 19:54 53.34036 -2.61256 3989 ft 233 kts 225°
2026-05-05 19:54 53.32882 -2.63186 3997 ft 235 kts 223°
2026-05-05 19:55 53.31501 -2.64563 3998 ft 232 kts 192°
2026-05-05 19:55 53.29918 -2.64545 3999 ft 228 kts 165°
2026-05-05 19:55 53.28383 -2.63870 4001 ft 229 kts 161°
2026-05-05 19:55 53.26866 -2.63078 4001 ft 228 kts 160°
2026-05-05 19:56 53.25343 -2.62341 3994 ft 229 kts 172°
2026-05-05 19:56 53.23763 -2.62637 3994 ft 232 kts 195°
2026-05-05 19:56 53.22235 -2.63474 3993 ft 231 kts 199°
2026-05-05 19:56 53.20713 -2.64385 3992 ft 234 kts 199°
2026-05-05 19:57 53.19133 -2.64914 3997 ft 232 kts 176°
2026-05-05 19:57 53.17597 -2.64251 3988 ft 228 kts 147°
2026-05-05 19:57 53.16435 -2.62528 3989 ft 223 kts 120°
2026-05-05 19:57 53.15872 -2.60168 3990 ft 219 kts 94°
2026-05-05 19:58 53.15986 -2.57680 3997 ft 216 kts 69°
2026-05-05 19:58 53.16728 -2.55536 3997 ft 215 kts 46°
2026-05-05 19:58 53.17953 -2.54126 3997 ft 217 kts 22°
2026-05-05 19:58 53.19420 -2.53456 4002 ft 220 kts 15°
2026-05-05 19:59 53.20854 -2.52849 3985 ft 206 kts 16°
2026-05-05 19:59 53.22201 -2.52272 3996 ft 196 kts 17°
2026-05-05 19:59 53.23486 -2.51480 3803 ft 192 kts 35°
2026-05-05 19:59 53.24415 -2.50060 3565 ft 178 kts 52°
2026-05-05 20:00 53.25175 -2.48500 3322 ft 168 kts 53°
2026-05-05 20:00 53.25893 -2.47025 3077 ft 159 kts 52°
2026-05-05 20:00 53.26576 -2.45624 2879 ft 151 kts 52°
2026-05-05 20:00 53.27218 -2.44305 2676 ft 143 kts 52°
2026-05-05 20:01 53.27831 -2.43045 2490 ft 137 kts 52°
2026-05-05 20:01 53.28428 -2.41818 2303 ft 136 kts 52°
2026-05-05 20:01 53.29021 -2.40599 2113 ft 134 kts 52°
2026-05-05 20:01 53.29606 -2.39395 1935 ft 133 kts 52°
2026-05-05 20:02 53.30194 -2.38184 1762 ft 132 kts 52°
2026-05-05 20:02 53.30764 -2.37011 1582 ft 132 kts 51°
2026-05-05 20:02 53.31342 -2.35817 1387 ft 132 kts 51°
2026-05-05 20:02 53.31918 -2.34630 1228 ft 131 kts 51°
2026-05-05 20:03 53.32493 -2.33441 1024 ft 132 kts 51°
2026-05-05 20:03 53.33083 -2.32226 767 ft 132 kts 52°
2026-05-05 20:03 53.33651 -2.31054 608 ft 134 kts 51°
2026-05-05 20:03 53.34230 -2.29864 413 ft 133 kts 52°
2026-05-05 20:04 53.34807 -2.28674 249 ft 128 kts 52°
2026-05-05 20:04 53.35285 -2.27682 239 ft 77 kts 52°
2026-05-05 20:04 53.35524 -2.27194 250 ft 44 kts 48°
2026-05-05 20:04 53.35640 -2.27096 257 ft 9 kts 305°
2026-05-05 20:05 53.35717 -2.27212 255 ft 20 kts 326°
2026-05-05 20:05 53.35775 -2.27305 255 ft 4 kts 281°
2026-05-05 20:05 53.35761 -2.27375 255 ft 11 kts 238°
2026-05-05 20:05 53.35696 -2.27510 251 ft 18 kts 231°
2026-05-05 20:06 53.35697 -2.27621 247 ft 9 kts 332°
2026-05-05 20:06 53.35758 -2.27658 250 ft 12 kts 340°
2026-05-05 20:06 53.35767 -2.27662 251 ft 1 kts 345°
2026-05-05 20:06 53.35808 -2.27717 252 ft 11 kts 308°
2026-05-05 20:07 53.35876 -2.27839 254 ft 15 kts 334°